Details for Norwegian Air International at LEAL




Go Back


Latest METAR
Local Time

LEAL 261330Z 09012KT 040V130 9999 FEW010 SCT017 22/18 Q1013 NOSIG

26/05/2018, 15:47:00

Description
Results
Norwegian Air International Logo
Number of Pilots based at LEAL
0 Pilots Based here
Number of Norwegian Air International Flights Departed from LEAL
1 Flights Departed
Number of Norwegian Air International Flights Arrived at LEAL
0 Flights Arrived
Number of Norwegian Air International Schedules Departing from LEAL
37 Schedules
Number of Norwegian Air International Schedules Arriving at LEAL
39 Schedules
Number of Norwegian Air International Schedules Departing from LEAL availible today
14 Schedules Today
Number of Norwegian Air International Schedules Arriving at LEAL availible today
14 Schedules Today
Average Landing Rate at LEAL
-245 fpm
Norwegian Air International Average Landing Rate at LEAL
0 fpm
Total Fuel Purchased at LEAL by Norwegian Air International
7,098.72 kgs / 15,649.84 lbs

Pilots Based at LEAL


Pilot ID
Pilot Name
Pilot Rank
No. of Flights
No. of Flying Hours
There are no pilots assigned to this hub!   Will you be the first?
Content